TimeCST,TemperatureF,Dew PointF,Humidity,Sea Level PressureIn,VisibilityMPH,Wind Direction,Wind SpeedMPH,Gust SpeedMPH,PrecipitationIn,Events,Conditions,WindDirDegrees,DateUTC
12:15 AM,27.3,25.5,93,30.09,1.5,ENE,6.9,-,N/A,Snow,Light Snow,70,2013-12-14 06:15:00
12:35 AM,27.5,25.5,92,30.09,3.0,ENE,9.2,-,N/A,Snow,Light Snow,60,2013-12-14 06:35:00
12:55 AM,27.5,25.7,93,30.08,1.0,ENE,6.9,-,N/A,Snow,Light Snow,70,2013-12-14 06:55:00
1:15 AM,28.0,26.2,93,30.07,1.0,ENE,6.9,-,N/A,Snow,Light Snow,60,2013-12-14 07:15:00
1:35 AM,28.0,26.4,94,30.06,1.2,ENE,8.1,-,N/A,Snow,Light Snow,70,2013-12-14 07:35:00
1:55 AM,28.2,26.6,94,30.06,1.0,ENE,6.9,-,N/A,Snow,Light Snow,70,2013-12-14 07:55:00
2:15 AM,28.4,26.6,93,30.06,0.8,ENE,8.1,-,N/A,Snow,Light Snow,70,2013-12-14 08:15:00
2:35 AM,28.4,26.6,93,30.05,0.8,East,8.1,-,N/A,Snow,Light Snow,80,2013-12-14 08:35:00
2:55 AM,28.4,26.8,94,30.04,0.8,ENE,9.2,-,N/A,Snow,Light Snow,70,2013-12-14 08:55:00
3:15 AM,28.4,26.6,93,30.03,1.5,East,8.1,-,N/A,Snow,Light Snow,80,2013-12-14 09:15:00
3:35 AM,28.4,27.0,94,30.01,0.5,ENE,9.2,-,N/A,Snow,Snow,70,2013-12-14 09:35:00
3:55 AM,28.6,27.0,94,30.01,1.0,East,8.1,-,N/A,Snow,Light Snow,80,2013-12-14 09:55:00
4:15 AM,28.8,27.1,94,30.02,0.8,ENE,5.8,-,N/A,Snow,Light Snow,70,2013-12-14 10:15:00
4:35 AM,28.8,27.1,94,30.02,0.8,East,5.8,-,N/A,Snow,Light Snow,80,2013-12-14 10:35:00
4:55 AM,28.8,27.1,94,30.00,0.8,ENE,6.9,-,N/A,Snow,Light Snow,60,2013-12-14 10:55:00
5:15 AM,28.8,27.1,94,30.00,1.2,ENE,5.8,-,N/A,Snow,Light Snow,60,2013-12-14 11:15:00
5:35 AM,28.8,27.1,94,30.00,1.8,NE,6.9,-,N/A,Snow,Light Snow,40,2013-12-14 11:35:00
5:55 AM,28.9,27.1,93,30.00,1.5,ENE,6.9,-,N/A,Snow,Light Snow,60,2013-12-14 11:55:00
6:15 AM,29.1,27.3,93,30.00,1.8,ENE,8.1,-,N/A,Snow,Light Snow,60,2013-12-14 12:15:00
6:35 AM,29.1,27.3,93,30.00,1.2,NE,6.9,-,N/A,Snow,Light Snow,50,2013-12-14 12:35:00
6:55 AM,28.9,27.1,93,29.99,2.0,NE,8.1,-,N/A,Snow,Light Snow,50,2013-12-14 12:55:00
7:15 AM,28.9,27.1,93,29.97,1.8,NE,9.2,-,N/A,Snow,Light Snow,40,2013-12-14 13:15:00
7:35 AM,28.8,27.0,93,29.97,1.5,NNE,8.1,-,N/A,Snow,Light Snow,30,2013-12-14 13:35:00
7:55 AM,28.9,27.1,93,29.97,1.2,NE,8.1,-,N/A,Snow,Light Snow,40,2013-12-14 13:55:00
8:15 AM,29.1,27.1,92,29.97,1.8,NE,8.1,-,N/A,Snow,Light Snow,40,2013-12-14 14:15:00
8:35 AM,29.3,27.1,92,29.98,1.8,NE,10.4,-,N/A,Snow,Light Snow,40,2013-12-14 14:35:00
8:55 AM,29.3,27.0,91,29.97,2.0,NE,8.1,-,N/A,Snow,Light Snow,50,2013-12-14 14:55:00
9:15 AM,29.3,27.0,91,29.98,2.0,NE,9.2,-,N/A,Snow,Light Snow,50,2013-12-14 15:15:00
9:35 AM,29.3,26.6,90,29.97,1.5,NE,9.2,-,N/A,Snow,Light Snow,50,2013-12-14 15:35:00
9:55 AM,29.7,27.1,90,29.96,1.5,NE,8.1,-,N/A,Snow,Light Snow,40,2013-12-14 15:55:00
10:15 AM,29.3,27.1,92,29.96,1.5,NE,10.4,-,N/A,Snow,Light Snow,40,2013-12-14 16:15:00
10:35 AM,29.8,27.5,91,29.96,1.8,NNE,8.1,-,N/A,Snow,Light Snow,20,2013-12-14 16:35:00
10:55 AM,30.0,27.3,90,29.94,1.5,NNE,10.4,-,N/A,Snow,Light Snow,20,2013-12-14 16:55:00
11:15 AM,29.8,26.6,88,29.94,3.0,NNE,9.2,-,N/A,Snow,Light Snow,30,2013-12-14 17:15:00
11:35 AM,30.2,26.8,87,29.93,4.0,NNE,11.5,-,N/A,Snow,Light Snow,30,2013-12-14 17:35:00
11:55 AM,30.2,26.8,87,29.92,2.5,NNE,9.2,-,N/A,Snow,Light Snow,20,2013-12-14 17:55:00
12:15 PM,30.2,26.6,86,29.91,4.0,NNE,8.1,-,N/A,Snow,Light Snow,30,2013-12-14 18:15:00
12:35 PM,30.7,26.6,85,29.90,7.0,NNE,12.7,-,N/A,Snow,Light Snow,30,2013-12-14 18:35:00
12:55 PM,30.6,26.6,85,29.90,7.0,NNE,10.4,-,N/A,Snow,Light Snow,20,2013-12-14 18:55:00
1:15 PM,30.6,26.4,85,29.90,4.0,NNE,6.9,-,N/A,Snow,Light Snow,30,2013-12-14 19:15:00
1:35 PM,30.7,26.6,85,29.89,5.0,NNE,10.4,-,N/A,Snow,Light Snow,20,2013-12-14 19:35:00
1:55 PM,30.4,26.4,85,29.89,5.0,NNE,12.7,-,N/A,Snow,Light Snow,20,2013-12-14 19:55:00
2:15 PM,30.2,26.1,85,29.90,7.0,North,9.2,-,N/A,Snow,Light Snow,10,2013-12-14 20:15:00
2:35 PM,30.2,26.1,85,29.90,10.0,NNE,11.5,-,N/A,,Overcast,20,2013-12-14 20:35:00
2:55 PM,30.2,25.7,83,29.90,7.0,North,10.4,-,N/A,Snow,Light Snow,360,2013-12-14 20:55:00
3:15 PM,29.8,26.2,86,29.91,5.0,North,9.2,-,N/A,Snow,Light Snow,360,2013-12-14 21:15:00
3:35 PM,29.8,25.7,85,29.91,10.0,North,10.4,16.1,N/A,,Overcast,10,2013-12-14 21:35:00
3:55 PM,29.8,25.2,83,29.92,10.0,North,9.2,-,N/A,,Overcast,10,2013-12-14 21:55:00
4:15 PM,29.8,25.2,83,29.92,10.0,NNE,11.5,16.1,N/A,,Overcast,20,2013-12-14 22:15:00
4:35 PM,29.8,24.6,81,29.93,10.0,North,10.4,16.1,N/A,,Overcast,360,2013-12-14 22:35:00
4:55 PM,29.7,24.6,81,29.94,10.0,North,12.7,18.4,N/A,,Overcast,360,2013-12-14 22:55:00
5:15 PM,29.3,23.9,80,29.94,10.0,North,9.2,16.1,N/A,,Overcast,350,2013-12-14 23:15:00
5:35 PM,29.1,23.7,80,29.95,10.0,North,9.2,-,N/A,,Overcast,350,2013-12-14 23:35:00
5:55 PM,28.8,23.2,80,29.96,10.0,North,10.4,-,N/A,,Overcast,360,2013-12-14 23:55:00
6:15 PM,28.8,23.0,79,29.95,10.0,North,8.1,-,N/A,,Overcast,350,2013-12-15 00:15:00
6:35 PM,28.4,22.5,78,29.96,10.0,North,8.1,-,N/A,,Overcast,350,2013-12-15 00:35:00
6:55 PM,28.2,23.0,81,29.97,10.0,NNW,10.4,-,N/A,,Overcast,340,2013-12-15 00:55:00
7:15 PM,28.2,23.0,81,29.97,10.0,NNW,5.8,-,N/A,,Overcast,330,2013-12-15 01:15:00
7:35 PM,28.0,22.6,80,29.97,10.0,NNW,5.8,-,N/A,,Overcast,330,2013-12-15 01:35:00
7:55 PM,27.7,21.7,78,29.98,10.0,NNW,9.2,-,N/A,,Overcast,330,2013-12-15 01:55:00
8:15 PM,26.4,21.7,82,29.99,10.0,NW,5.8,-,N/A,,Overcast,310,2013-12-15 02:15:00
8:35 PM,25.7,21.7,85,29.99,10.0,NW,5.8,-,N/A,,Overcast,310,2013-12-15 02:35:00
8:55 PM,25.3,21.4,85,29.99,10.0,NW,5.8,-,N/A,,Overcast,310,2013-12-15 02:55:00
9:15 PM,25.2,21.2,85,29.99,10.0,WNW,6.9,-,N/A,,Overcast,300,2013-12-15 03:15:00
9:35 PM,24.8,21.0,86,30.00,10.0,WNW,6.9,-,N/A,,Overcast,300,2013-12-15 03:35:00
9:55 PM,24.6,20.3,84,30.00,10.0,WNW,5.8,-,N/A,,Overcast,300,2013-12-15 03:55:00
10:15 PM,23.7,19.6,84,30.00,10.0,West,4.6,-,N/A,,Mostly Cloudy,280,2013-12-15 04:15:00
10:35 PM,22.1,18.5,86,30.00,10.0,West,4.6,-,N/A,,Clear,270,2013-12-15 04:35:00
10:55 PM,19.9,16.7,87,30.00,10.0,West,5.8,-,N/A,,Clear,280,2013-12-15 04:55:00
11:15 PM,18.7,15.8,89,30.00,10.0,West,5.8,-,N/A,,Clear,280,2013-12-15 05:15:00
11:35 PM,18.0,14.9,88,30.00,10.0,West,5.8,-,N/A,,Mostly Cloudy,280,2013-12-15 05:35:00
11:55 PM,17.1,14.2,88,29.99,10.0,West,4.6,-,N/A,,Mostly Cloudy,270,2013-12-15 05:55:00